Satellite: NOAA-11 Catalog number: 19531 Epoch time: 11278.86931801 Element set: 0656 Inclination: 098.7484 deg RA of node: 004.2177 deg Eccentricity: 0.0010429 Arg of perigee: 231.5882 deg Mean anomaly: 128.4382 deg Mean motion: 14.14927310 rev/day Decay rate: 2.60e-06 rev/day^2 Epoch rev: 18840 Checksum: 298
Satellite: NOAA-12 Catalog number: 21263 Epoch time: 11278.97040864 Element set: 0174 Inclination: 098.7484 deg RA of node: 296.6061 deg Eccentricity: 0.0013047 Arg of perigee: 219.7384 deg Mean anomaly: 140.2841 deg Mean motion: 14.25441470 rev/day Decay rate: -1.64e-06 rev/day^2 Epoch rev: 06019 Checksum: 295
Satellite: MET-3/5 Catalog number: 21655 Epoch time: 11279.80754126 Element set: 226 Inclination: 082.5596 deg RA of node: 331.9141 deg Eccentricity: 0.0012236 Arg of perigee: 235.2639 deg Mean anomaly: 124.7370 deg Mean motion: 13.17032123 rev/day Decay rate: 5.1e-07 rev/day^2 Epoch rev: 96841 Checksum: 283
Satellite: MET-2/21 Catalog number: 22782 Epoch time: 11279.83504695 Element set: 222 Inclination: 082.5467 deg RA of node: 234.2890 deg Eccentricity: 0.0023418 Arg of perigee: 142.4046 deg Mean anomaly: 217.8785 deg Mean motion: 13.83663395 rev/day Decay rate: 1.29e-06 rev/day^2 Epoch rev: 91399 Checksum: 329
Satellite: OKEAN-4 Catalog number: 23317 Epoch time: 11279.88941112 Element set: 686 Inclination: 082.5372 deg RA of node: 268.8220 deg Eccentricity: 0.0023704 Arg of perigee: 108.3843 deg Mean anomaly: 251.9957 deg Mean motion: 14.83190361 rev/day Decay rate: 1.178e-05 rev/day^2 Epoch rev: 91710 Checksum: 310
Satellite: NOAA-14 Catalog number: 23455 Epoch time: 11278.93138156 Element set: 0649 Inclination: 098.8461 deg RA of node: 000.4333 deg Eccentricity: 0.0009072 Arg of perigee: 330.6151 deg Mean anomaly: 029.4506 deg Mean motion: 14.13835759 rev/day Decay rate: 5.2e-07 rev/day^2 Epoch rev: 86472 Checksum: 301
Satellite: NOAA-15 Catalog number: 25338 Epoch time: 11278.96945256 Element set: 0974 Inclination: 098.6679 deg RA of node: 263.6576 deg Eccentricity: 0.0011421 Arg of perigee: 127.0069 deg Mean anomaly: 233.2137 deg Mean motion: 14.24958061 rev/day Decay rate: 1.72e-06 rev/day^2 Epoch rev: 69650 Checksum: 333
Satellite: RESURS Catalog number: 25394 Epoch time: 11278.96698577 Element set: 0913 Inclination: 098.3059 deg RA of node: 275.9196 deg Eccentricity: 0.0000528 Arg of perigee: 297.0250 deg Mean anomaly: 063.0877 deg Mean motion: 14.24242906 rev/day Decay rate: 6.0e-07 rev/day^2 Epoch rev: 68807 Checksum: 335
Satellite: FENGYUN1 Catalog number: 25730 Epoch time: 11278.89985429 Element set: 439 Inclination: 098.8256 deg RA of node: 237.7146 deg Eccentricity: 0.0025227 Arg of perigee: 007.6975 deg Mean anomaly: 352.4576 deg Mean motion: 14.08859782 rev/day Decay rate: 1.649e-05 rev/day^2 Epoch rev: 63865 Checksum: 367
Satellite: OKEAN-0 Catalog number: 25860 Epoch time: 11279.91218288 Element set: 431 Inclination: 097.8985 deg RA of node: 243.3729 deg Eccentricity: 0.0001408 Arg of perigee: 047.8419 deg Mean anomaly: 312.2909 deg Mean motion: 14.73861285 rev/day Decay rate: 6.31e-06 rev/day^2 Epoch rev: 65711 Checksum: 321
Satellite: NOAA-16 Catalog number: 26536 Epoch time: 11278.56979307 Element set: 0455 Inclination: 099.1313 deg RA of node: 311.3068 deg Eccentricity: 0.0011442 Arg of perigee: 083.6432 deg Mean anomaly: 276.6041 deg Mean motion: 14.12651330 rev/day Decay rate: 3.49e-06 rev/day^2 Epoch rev: 56894 Checksum: 304
Satellite: NOAA-17 Catalog number: 27453 Epoch time: 11278.82001823 Element set: 0442 Inclination: 098.3687 deg RA of node: 313.3927 deg Eccentricity: 0.0011670 Arg of perigee: 180.7790 deg Mean anomaly: 179.3350 deg Mean motion: 14.24320976 rev/day Decay rate: 1.23e-06 rev/day^2 Epoch rev: 48240 Checksum: 298
Satellite: NOAA-18 Catalog number: 28654 Epoch time: 11278.68193046 Element set: 0919 Inclination: 099.0094 deg RA of node: 230.1646 deg Eccentricity: 0.0014539 Arg of perigee: 150.5574 deg Mean anomaly: 209.6409 deg Mean motion: 14.11522185 rev/day Decay rate: 5.6e-07 rev/day^2 Epoch rev: 32851 Checksum: 312
Satellite: NOAA-19 Catalog number: 33591 Epoch time: 11278.70365229 Element set: 0110 Inclination: 098.8353 deg RA of node: 217.0384 deg Eccentricity: 0.0014778 Arg of perigee: 026.7280 deg Mean anomaly: 333.4645 deg Mean motion: 14.11211818 rev/day Decay rate: 6.0e-08 rev/day^2 Epoch rev: 13697 Checksum: 299
/EX SB KEPS @ AMSAT $ORB11279.M Orbital Elements 11279.MISC
HR AMSAT ORBITAL ELEMENTS FOR MANNED AND MISCELLANEOUS SATELLITES FROM WA5QGD FORT WORTH,TX October 6, 2011 Send Subscribe/unsubscribe to KEPS at http://www.amsat.org/mailman/listinfo/keps BID: ORB11279.M TO ALL RADIO AMATEURS BT
Satellite: HUBBLE Catalog number: 20580 Epoch time: 11278.65948814 Element set: 0845 Inclination: 028.4709 deg RA of node: 014.7171 deg Eccentricity: 0.0003450 Arg of perigee: 211.7045 deg Mean anomaly: 148.3349 deg Mean motion: 15.01579291 rev/day Decay rate: 2.055e-05 rev/day^2 Epoch rev: 97627 Checksum: 302
Satellite: ISS Catalog number: 25544 Epoch time: 11279.69314115 Element set: 191 Inclination: 051.6407 deg RA of node: 319.4095 deg Eccentricity: 0.0016293 Arg of perigee: 296.1117 deg Mean anomaly: 063.8721 deg Mean motion: 15.60333571 rev/day Decay rate: 2.0530e-04 rev/day^2 Epoch rev: 14238 Checksum: 279
Satellite: CO-58 Catalog number: 28895 Epoch time: 11278.87355350 Element set: 0993 Inclination: 097.9484 deg RA of node: 150.8836 deg Eccentricity: 0.0016936 Arg of perigee: 231.0251 deg Mean anomaly: 128.9454 deg Mean motion: 14.60201301 rev/day Decay rate: 6.50e-06 rev/day^2 Epoch rev: 31639 Checksum: 326
Satellite: FALCON Catalog number: 30776 Epoch time: 11278.77553232 Element set: 0201 Inclination: 035.4334 deg RA of node: 034.3595 deg Eccentricity: 0.0002323 Arg of perigee: 326.5666 deg Mean anomaly: 033.4904 deg Mean motion: 15.05130374 rev/day Decay rate: 4.731e-05 rev/day^2 Epoch rev: 25171 Checksum: 265
Satellite: MAST Catalog number: 31126 Epoch time: 11278.98462401 Element set: 0281 Inclination: 097.8881 deg RA of node: 299.9202 deg Eccentricity: 0.0093969 Arg of perigee: 185.2530 deg Mean anomaly: 174.7691 deg Mean motion: 14.53822589 rev/day Decay rate: 5.75e-06 rev/day^2 Epoch rev: 23718 Checksum: 340
Satellite: CAPE1 Catalog number: 31130 Epoch time: 11278.93557698 Element set: 0290 Inclination: 097.8961 deg RA of node: 296.4867 deg Eccentricity: 0.0101704 Arg of perigee: 196.8297 deg Mean anomaly: 162.9529 deg Mean motion: 14.52489510 rev/day Decay rate: 6.31e-06 rev/day^2 Epoch rev: 23671 Checksum: 339
Satellite: COMPASS Catalog number: 32787 Epoch time: 11279.84400412 Element set: 110 Inclination: 097.8372 deg RA of node: 341.5242 deg Eccentricity: 0.0015779 Arg of perigee: 167.5244 deg Mean anomaly: 192.6345 deg Mean motion: 14.82703293 rev/day Decay rate: 2.127e-05 rev/day^2 Epoch rev: 18610 Checksum: 292
Satellite: AAUSAT2 Catalog number: 32788 Epoch time: 11278.64599871 Element set: 0101 Inclination: 097.8354 deg RA of node: 340.6095 deg Eccentricity: 0.0015274 Arg of perigee: 172.8109 deg Mean anomaly: 187.3317 deg Mean motion: 14.82903829 rev/day Decay rate: 2.251e-05 rev/day^2 Epoch rev: 18594 Checksum: 331
Satellite: DO-64 Catalog number: 32789 Epoch time: 11278.68316806 Element set: 0117 Inclination: 097.8459 deg RA of node: 341.8758 deg Eccentricity: 0.0015497 Arg of perigee: 170.5394 deg Mean anomaly: 189.6127 deg Mean motion: 14.83539348 rev/day Decay rate: 4.294e-05 rev/day^2 Epoch rev: 18596 Checksum: 377
Satellite: CO-66 Catalog number: 32791 Epoch time: 11279.21031779 Element set: 103 Inclination: 097.8362 deg RA of node: 340.8045 deg Eccentricity: 0.0016223 Arg of perigee: 169.2754 deg Mean anomaly: 190.8859 deg Mean motion: 14.82347001 rev/day Decay rate: 2.205e-05 rev/day^2 Epoch rev: 18595 Checksum: 311
Satellite: RS-30 Catalog number: 32953 Epoch time: 11279.54404158 Element set: 144 Inclination: 082.4962 deg RA of node: 093.4905 deg Eccentricity: 0.0019208 Arg of perigee: 141.6617 deg Mean anomaly: 218.5830 deg Mean motion: 12.43015561 rev/day Decay rate: 1.0e-07 rev/day^2 Epoch rev: 15292 Checksum: 278
Satellite: TACSAT-3 Catalog number: 35001 Epoch time: 11278.94860714 Element set: 0723 Inclination: 040.4512 deg RA of node: 218.3214 deg Eccentricity: 0.0019274 Arg of perigee: 312.0110 deg Mean anomaly: 047.9100 deg Mean motion: 15.53655814 rev/day Decay rate: 4.5732e-04 rev/day^2 Epoch rev: 13428 Checksum: 261
Satellite: PHARMSAT Catalog number: 35002 Epoch time: 11278.96928308 Element set: 0670 Inclination: 040.4676 deg RA of node: 216.8701 deg Eccentricity: 0.0021403 Arg of perigee: 321.9115 deg Mean anomaly: 038.0202 deg Mean motion: 15.52269396 rev/day Decay rate: 3.4207e-04 rev/day^2 Epoch rev: 13430 Checksum: 268
Satellite: HAWKSAT1 Catalog number: 35003 Epoch time: 11278.76493853 Element set: 0821 Inclination: 040.4370 deg RA of node: 161.0594 deg Eccentricity: 0.0006849 Arg of perigee: 275.9761 deg Mean anomaly: 084.3784 deg Mean motion: 16.29831142 rev/day Decay rate: 5.638703e-02 rev/day^2 Epoch rev: 13489 Checksum: 328
Satellite: CP6 Catalog number: 35004 Epoch time: 11247.64656856 Element set: 784 Inclination: 040.4403 deg RA of node: 342.9642 deg Eccentricity: 0.0002956 Arg of perigee: 038.0069 deg Mean anomaly: 322.2231 deg Mean motion: 16.41039951 rev/day Decay rate: 1.6152067e-01 rev/day^2 Epoch rev: 13013 Checksum: 285
Satellite: METEOR-M Catalog number: 35865 Epoch time: 11279.68967919 Element set: 790 Inclination: 098.6929 deg RA of node: 333.3003 deg Eccentricity: 0.0003319 Arg of perigee: 066.1169 deg Mean anomaly: 294.0315 deg Mean motion: 14.21843384 rev/day Decay rate: 1.77e-06 rev/day^2 Epoch rev: 10643 Checksum: 322
